Find Starlink 37913

NORAD ID: 100488 Int'l Des: 2026-196 Owner: SPXS Country: US Constellation: starlink operational

Aktuelle Ansicht

3D-Globus wird geladen...

About Starlink 37913

Starlink 37913 (NORAD 100488) is a starlink constellation satellite launched Aug 25, 2026 by SPXS of US. with a mass of 575.00 kg.

Nächste Überflüge

Passes for default location (London). Set your location on the main map for personalized predictions.

Höhenverlauf

Loading altitude history...

Zweizeiliger Elementsatz

1 A0488U 26196R 26251.32855637 .00074610 00000-0 39648-3 0 9990
2 A0488 53.1587 302.4910 0001700 95.6835 264.4381 15.79844796 3432
Epoch: 8. Sept. 2026 • Age: 11 hours

Aktueller Status

Höhe 331.7 km
Apogäum / Perigäum N/A
Geschwindigkeit 7.71 km/s
Subsatellitenpunkt 29.52°N, 57.27°E
Startdatum 25. Aug. 2026
Alter 14 days
Typ internet

Technische Details

Klassifizierung Payload
Masse 575.00 kg
Trockenmasse 530.00 kg
Gesamtmasse 575.00 kg
Länge 0.30 m
Durchmesser 4.10 m
Spannweite 29.00 m
Form Box + pan
Hersteller SPXS
Bus-Typ Starlink V2MO
Phasenstatus In Orbit
Besitzer/Staat SPXS/US

Most Searched